This demonstration page uses our WeatherBlox Daily Observations layout. Learn more.

38.89511, -77.03637

Hourly Observations for June 1, 2018

Temp ( °F °C ) Dew Point ( °F °C ) Humidity (%) Winds ( mph kmh ) Pressure ( in mb ) Visibility ( mi km ) Precip ( " mm )
12:04 am 00:04 Cloudy 73 22.8 70 21.1 90 90 S 7 11 29.88 1012 10 16.09344 0 0
12:52 am 00:52 Cloudy 73 22.8 69 20.6 87 87 S 3 6 29.83 1010 10 16.09344 0 0
1:31 am 01:31 Cloudy 73 22.8 69 20.6 87 87 S 7 11 29.83 1010 10 16.09344 0 0
1:38 am 01:38 Cloudy 73 22.8 69 20.6 87 87 S 8 13 29.83 1010 10 16.09344 0 0
1:52 am 01:52 Cloudy 72 22.2 69 20.6 91 91 SSW 5 7 29.83 1010 10 16.09344 0 0
2:02 am 02:02 Mostly Cloudy 72 22.2 69 20.6 91 91 SSW 6 9 29.83 1010 10 16.09344 0 0
2:47 am 02:47 Cloudy 72 22 70 21 94 94 SW 5 7 29.83 1010 10 16.09344 0 0
2:52 am 02:52 Cloudy 72 22.2 69 20.6 91 91 SW 6 9 29.83 1010 10 16.09344 0 0
3:52 am 03:52 Cloudy 72 22.2 69 20.6 91 91 Calm 29.8 1009 10 16.09344 0 0
4:52 am 04:52 Cloudy 72 22.2 69 20.6 91 91 Calm 29.8 1009 10 16.09344 0 0
5:52 am 05:52 Cloudy 72 22.2 68 20 87 87 W 5 7 29.83 1010 10 16.09344 0 0
6:52 am 06:52 Cloudy 72 22.2 69 20.6 91 91 Calm 29.83 1010 9 14.484096 0 0
7:52 am 07:52 Cloudy 73 22.8 69 20.6 87 87 E 3 6 29.83 1010 10 16.09344 0 0
8:03 am 08:03 Partly Cloudy 73 22.8 69 20.6 87 87 Calm 29.85 1011 10 16.09344 0 0
8:52 am 08:52 Mostly Cloudy 76 24.4 69 20.6 79 79 E 3 6 29.83 1010 10 16.09344 0 0
9:52 am 09:52 Mostly Cloudy 77 25 70 21.1 79 79 SE 3 6 29.83 1010 10 16.09344 0 0
10:52 am 10:52 Mostly Cloudy 83 28.3 67 19.4 59 59 NNW 10 17 29.83 1010 10 16.09344 0 0
11:52 am 11:52 Sunny 84 28.9 67 19.4 57 57 N 13 20 29.83 1010 10 16.09344 0 0
12:28 pm 12:28 Mostly Cloudy 86 30 69 20.6 57 57 NNE 10 17 29.83 1010 10 16.09344 0 0
12:52 pm 12:52 Mostly Cloudy 86 30 67 19.4 53 53 N 5 7 29.8 1009 10 16.09344 0 0
1:52 pm 13:52 Mostly Cloudy 87 30.6 68 20 53 53 NNE 9 15 29.8 1009 10 16.09344 0 0
2:52 pm 14:52 Mostly Cloudy 88 31.1 67 19.4 50 50 undefined N/A 29.77 1008 10 16.09344 0 0
3:52 pm 15:52 Partly Cloudy 89 31.7 68 20 50 50 WSW 5 7 29.77 1008 10 16.09344 0 0
4:52 pm 16:52 Partly Cloudy 86 30 70 21.1 59 59 S 12 19 29.74 1007 10 16.09344 0 0
5:52 pm 17:52 Partly Cloudy 86 30 71 21.7 61 61 S 9 15 29.71 1006 10 16.09344 0 0
6:52 pm 18:52 Partly Cloudy 84 28.9 70 21.1 63 63 S 10 17 29.74 1007 10 16.09344 0 0
7:52 pm 19:52 Mostly Cloudy 83 28.3 70 21.1 65 65 SSW 7 11 29.74 1007 10 16.09344 0 0
8:52 pm 20:52 Partly Cloudy 84 28.9 69 20.6 61 61 SW 7 11 29.74 1007 10 16.09344 0 0
9:52 pm 21:52 Partly Cloudy 83 28.3 70 21.1 65 65 SW 6 9 29.74 1007 10 16.09344 0 0
10:32 pm 22:32 Partly Cloudy 83 28.3 69 20.6 63 63 W 12 19 29.77 1008 10 16.09344 0 0
10:52 pm 22:52 Mostly Cloudy 82 27.8 67 19.4 60 60 W 10 17 29.77 1008 10 16.09344 0 0
11:22 pm 23:22 Mostly Cloudy with Nearby Thunderstorms 81 27.2 67 19.4 62 62 NNW 12 19 29.77 1008 10 16.09344 0 0
11:48 pm 23:48 Mostly Cloudy with Thunderstorms 79 26 66 19 65 65 NNW 14 22 29.8 1009 10 16.09344 0 0
11:52 pm 23:52 Mostly Cloudy with Thunderstorms 78 25.6 66 18.9 67 67 NW 14 22 29.77 1008 10 16.09344 0 0

Powered by AerisWeather